Regional Weather Roundup
Issued by NWS

Home | Current Version | Previous Version | Text Only | Print | Product List | Glossary On
Versions: 1 2 3 4 5 6 7 8 9 10 11 12 13 14 15 16 17 18 19 20 21 22 23 24 25 26 27 28 29 30 31 32 33 34 35 36 37 38 39 40 41 42 43 44 45 46 47 48 49 50
000
ASCA42 TJSJ 161510
RWRPR
PUERTO RICO/U.S. VIRGIN ISLANDS HOURLY WEATHER ROUNDUP
NATIONAL WEATHER SERVICE SAN JUAN PR
1100 AM AST SAT DEC 16 2017

PRZ001>002-007>008-010-161600-
PUERTO RICO

CITY           SKY/WX    TMP DP  RH WIND       PRES   REMARKS
SAN JUAN LMM   MOSUNNY   82  77  83 NE13      30.12F HX  91
AGUADILLA      CLOUDY    75  73  94 E15G21    30.14S
$$

VIZ001>002-161600-
U.S. VIRGIN ISLANDS

CITY           SKY/WX    TMP DP  RH WIND       PRES   REMARKS
CHARLOTTE AMA  MOSUNNY   84  73  70 NE13      30.10F HX  91
CHRISTIANSTED  MOSUNNY   82  73  74 NE15      30.09F
$$

HOURLY WEATHER ROUNDUP FOR THE NEWS MEDIA

CITY           SKY/WX    TMP DP  RH WIND       PRES   REMARKS
ORLANDO        MOSUNNY   65  48  54 NE7       30.26R
NEW YORK       PTSUNNY   32  22  66 W22       30.09R WCI  19
NEWARK         PTSUNNY   30  19  63 SW14      30.09R WCI  19
CHICAGO        MOSUNNY   36  24  62 SW6       29.87R WCI  31
HARTFORD       SUNNY     27  19  72 W12       29.96R WCI  17
BOSTON         MOSUNNY   29  16  58 W14       29.94R WCI  18
DALLAS         CLOUDY    45  30  55 SE5       30.14S
PHILADELPHIA   PTSUNNY   32  25  75 SW15      30.13S WCI  22
LOS ANGELES    PTCLDY    54  48  80 E9        29.74F
WASHINGTON DC  MOSUNNY   33  23  66 S10       30.15R WCI  25


USA.gov is the U.S. government's official web portal to all federal, state and local government web resources and services.